x

Mumbles Head (03609) Weather Station

3:00pm - Wed 10th Feb 2016 All times are GMT.

  • Wind
    8mph
  • 空気 Temp 48°f
  • Sea Pressure 1001mb
  • Mumbles Head
  • Mumbles Head

More Historic Weather Station data

Upgrade to MSW Pro to gain access to the past 30 days of data for over 8000 Wavebouys and Weather Stations around the globe.

Join Pro

Comparision Forecast

View Surf forecast
   
Wed 02/10 3:00pm 8
mph
1001mb 48f
2:00pm 13
mph
1001mb 47f
12:00pm 10
mph
1000mb 46f
10:00am 10
mph
999mb 44f
9:00am 10
mph
998mb 42f
8:00am 13
mph
997mb 41f
7:00am 14
mph
996mb 41f
6:00am 13
mph
996mb 42f
5:00am 11
mph
996mb 42f
4:00am 13 24 mph 995mb 41f
3:00am 14 30 mph 995mb 42f
2:00am 15
mph
995mb 42f
1:00am 14
mph
994mb 41f
12:00am 19 40 mph 993mb 41f
Tue 02/09 11:00pm 22 39 mph 993mb 42f
10:00pm 22 43 mph 992mb 42f
9:00pm 17 37 mph 991mb 42f
8:00pm 25 47 mph 990mb 42f
7:00pm 24 38 mph 989mb 41f
6:00pm 21 34 mph 989mb 41f
5:00pm 16 37 mph 988mb 42f
4:00pm 23 41 mph 987mb 44f
2:00pm 19 33 mph 987mb 45f
1:00pm 18 30 mph 987mb 46f
12:00pm 10
mph
987mb 42f
11:00am 8
mph
987mb 43f
10:00am 6
mph
987mb 41f
8:00am 9
mph
987mb 41f
7:00am 10
mph
988mb 41f
6:00am 13
mph
988mb 41f
5:00am 21 33 mph 989mb 43f
4:00am 24 33 mph 990mb 43f
3:00am 23 44 mph 991mb 42f
2:00am 24 44 mph 992mb 43f
1:00am 14 46 mph 993mb 43f
Mon 02/08 11:00pm 34 45 mph 993mb 43f
10:00pm 24 45 mph 994mb 46f
9:00pm 25 53 mph 994mb 46f
8:00pm 30 54 mph 994mb 47f
7:00pm 39 56 mph 993mb 47f
6:00pm 38 63 mph 992mb 47f
4:00pm 46 70 mph 989mb 48f
3:00pm 49 74 mph 987mb 48f
2:00pm 49 69 mph 986mb 48f
1:00pm 53 82 mph 984mb 47f
12:00pm 57 78 mph 983mb 48f
11:00am 53 81 mph 982mb 47f
10:00am 59 81 mph 980mb 47f
9:00am 59 81 mph 980mb 47f
8:00am 51 74 mph 980mb 47f
7:00am 55 75 mph 979mb 47f
6:00am 51 71 mph 980mb 46f
5:00am 49 71 mph 980mb 47f
4:00am 54 71 mph 981mb 44f
3:00am 44 59 mph 981mb 45f
2:00am 33 72 mph 983mb 44f
1:00am 46 60 mph 981mb 47f
12:00am 41 66 mph 982mb 47f
Sun 02/07 11:00pm 38 60 mph 983mb 46f
10:00pm 36 55 mph 982mb 50f
9:00pm 44 66 mph 982mb 48f
8:00pm 40 61 mph 982mb 50f
7:00pm 43 63 mph 983mb 49f
6:00pm 45 59 mph 985mb 47f
5:00pm 36 52 mph 988mb 45f
4:00pm 43 51 mph 990mb 45f
3:00pm 36 54 mph 992mb 44f
2:00pm 48 60 mph 992mb 42f
1:00pm 38 51 mph 993mb 46f
12:00pm 38 47 mph 993mb 47f
11:00am 33 41 mph 993mb 48f
10:00am 25 40 mph 993mb 47f
9:00am 24 37 mph 992mb 45f
8:00am 22 51 mph 991mb 44f
7:00am 28 52 mph 989mb 45f
6:00am 32 54 mph 988mb 43f
5:00am 16 47 mph 988mb 40f
4:00am 24 54 mph 988mb 43f
3:00am 34 49 mph 988mb 43f
2:00am 37 49 mph 987mb 45f
1:00am 15 54 mph 987mb 43f
12:00am 34 55 mph 986mb 46f
Sat 02/06 11:00pm 34 44 mph 986mb 47f
10:00pm 26 40 mph 985mb 47f
9:00pm 32 48 mph 985mb 43f
8:00pm 26 33 mph 985mb 47f
7:00pm 16 39 mph 984mb 46f
6:00pm 25 41 mph 984mb 46f
5:00pm 32 44 mph 983mb 47f